Regional Weather Roundup
Issued by NWS

Home | Current Version | Previous Version | Graphics & Text | Print | Product List | Glossary On
Versions: 1 2 3 4 5 6 7 8 9 10 11 12 13 14 15 16 17 18 19 20 21 22 23 24 25 26 27 28 29 30 31 32 33 34 35 36 37 38 39 40 41 42 43 44 45 46 47 48 49 50
002
ASUS43 KFSD 240410
RWRSD

WEATHER ROUNDUP FOR SOUTH DAKOTA
NATIONAL WEATHER SERVICE SIOUX FALLS SD
1100 PM CDT MON APR 23 2018

NOTE: "FAIR" INDICATES FEW OR NO CLOUDS BELOW 12,000 FEET WITH NO
SIGNIFICANT WEATHER AND/OR OBSTRUCTIONS TO VISIBILITY.


SDZ001>005-009-010-012>017-240500-
NORTHWEST AND NORTH CENTRAL SOUTH DAKOTA

CITY           SKY/WX    TMP DP  RH WIND       PRES   REMARKS
BUFFALO          N/A     34  31  88 NW23G30   30.23R WCI  22
FAITH            N/A     44  42  93 N26G35    30.12S
MOBRIDGE       CLOUDY    56  41  57 NE18G30   30.09F
$$

SDZ012>016-024>037-041>051-057-063-072>074-240500-
SOUTHWEST AND SOUTH CENTRAL SOUTH DAKOTA

CITY           SKY/WX    TMP DP  RH WIND       PRES   REMARKS
RAPID CTY ARPT CLOUDY    39  33  79 NW38G51   30.19R
PIERRE         CLOUDY    59  40  49 SE14      30.04S
CUSTER         CLOUDY    33  26  75 N14G35    30.17R WCI  23
PHILIP         CLOUDY    48  46  93 W17       30.10R
PINE RIDGE     CLOUDY    41  38  89 W12       30.18R
SPEARFISH      MIX PCPN  32  32 100 NW17G25   30.32R WCI  21
WINNER         CLOUDY    58  41  53 SE13      30.08S
$$

SDZ004>011-016>023-039-040-240500-
NORTHEAST SOUTH DAKOTA

CITY           SKY/WX    TMP DP  RH WIND       PRES   REMARKS
ABERDEEN       CLOUDY    57  44  62 NE16      30.14S
WATERTOWN      CLOUDY    52  43  71 S6        30.14S
BROOKINGS      CLOUDY    53  42  66 SE9       30.15R
SISSETON         N/A     55  46  71 N6        30.16R
$$

SDZ017-020-022-023-036>040-048>070-240500-
SOUTHEAST SOUTH DAKOTA

CITY           SKY/WX    TMP DP  RH WIND       PRES   REMARKS
SIOUX FALLS    PTCLDY    52  40  63 E8        30.14S
HURON          CLOUDY    58  44  60 SE8       30.11S
CHAMBERLAIN    CLOUDY    58  46  63 SE9       30.09S
MITCHELL       CLOUDY    57  45  64 E12       30.12S
YANKTON        CLOUDY    53  38  56 NE7       30.13R
$$

ABBREVIATIONS USED IN REMARKS
   TC - TEMPERATURE IN CELSIUS
  WCI - WIND CHILL INDEX
   HX - HEAT INDEX
  VSB - VISIBILITY





USA.gov is the U.S. government's official web portal to all federal, state and local government web resources and services.